EW4258 Weather Reports


Display with metric or nautical units.
time (UTC)temp
F
wind
direction
speed
MPH
gust
MPH
rain 1hr
in
rain 24hr
in
rain mn
in
humidity
%
barometer
mb
20260505102115 72 202 2.0 0.0 0.00 0.00 0.00 32 1008.9
20260505101114 71 112 2.0 7.0 0.00 0.00 0.00 33 1008.9
20260505095114 71 135 3.0 4.0 0.00 0.00 0.00 35 1009.1
20260505094114 71 112 2.0 4.0 0.00 0.00 0.00 35 1009.3
20260505093114 70 225 2.0 2.0 0.00 0.00 0.00 39 1009.3
20260505091113 68 292 1.0 2.0 0.00 0.00 0.00 39 1009.6
20260505090113 68 225 1.0 4.0 0.00 0.00 0.00 40 1009.9
20260505085113 66 225 0.0 1.0 0.00 0.00 0.00 39 1009.9
20260505084113 66 157 1.0 1.0 0.00 0.00 0.00 39 1010.0
20260505083113 65 112 0.0 1.0 0.00 0.00 0.00 40 1010.0
20260505082113 64 45 0.0 1.0 0.00 0.00 0.00 40 1010.2
20260505081113 63 225 0.0 0.0 0.00 0.00 0.00 41 1010.2
20260505080113 63 225 1.0 2.0 0.00 0.00 0.00 42 1010.2
20260505075113 61 225 1.0 3.0 0.00 0.00 0.00 41 1010.2
20260505074113 61 225 0.0 1.0 0.00 0.00 0.00 41 1010.6
20260505073113 61 135 0.0 0.0 0.00 0.00 0.00 42 1010.6
20260505071113 60 67 0.0 0.0 0.00 0.00 0.00 42 1010.9
20260505070114 59 45 1.0 2.0 0.00 0.00 0.00 42 1011.1
20260505064112 59 157 0.0 0.0 0.00 0.00 0.00 45 1011.3
20260505063112 58 135 1.0 2.0 0.00 0.00 0.00 45 1011.3
20260505061112 54 247 0.0 2.0 0.00 0.00 0.00 46 1011.4
20260505060112 54 337 1.0 1.0 0.00 0.00 0.00 47 1011.2
20260505055112 53 67 0.0 2.0 0.00 0.00 0.00 48 1011.2
20260505054112 51 292 0.0 0.0 0.00 0.00 0.00 49 1011.5
20260505052112 47 180 2.0 0.0 0.00 0.00 0.00 52 1011.5
20260505051111 44 45 0.0 1.0 0.00 0.00 0.00 52 1011.5
20260505050111 44 157 1.0 0.0 0.00 0.00 0.00 51 1011.8
20260505041111 44 90 0.0 0.0 0.00 0.00 0.00 50 1011.4
20260505040111 44 202 0.0 0.0 0.00 0.00 0.00 50 1011.5
20260505035112 45 135 0.0 0.0 0.00 0.00 0.00 50 1011.5
20260505034113 45 90 1.0 1.0 0.00 0.00 0.00 50 1011.6
20260505033113 45 135 0.0 0.0 0.00 0.00 0.00 50 1011.6
20260505032113 45 45 0.0 0.0 0.00 0.00 0.00 49 1011.8
20260505030112 46 157 0.0 0.0 0.00 0.00 0.00 48 1011.8
20260505024112 47 180 0.0 0.0 0.00 0.00 0.00 48 1011.9
20260505023112 47 67 0.0 2.0 0.00 0.00 0.00 48 1011.9
20260505021113 48 180 0.0 0.0 0.00 0.00 0.00 48 1011.9
20260505020112 48 202 0.0 0.0 0.00 0.00 0.00 47 1011.9
20260505015112 49 67 0.0 0.0 0.00 0.00 0.00 46 1011.9
20260505014112 49 157 1.0 0.0 0.00 0.00 0.00 47 1012.0
20260505013112 49 112 1.0 1.0 0.00 0.00 0.00 46 1012.0
20260505012112 50 67 0.0 1.0 0.00 0.00 0.00 46 1012.1
20260505011112 50 112 1.0 0.0 0.00 0.00 0.00 45 1012.1
20260505010112 50 135 0.0 0.0 0.00 0.00 0.00 45 1012.2
20260505005112 50 157 0.0 0.0 0.00 0.00 0.00 45 1012.2
20260505003111 51 90 0.0 0.0 0.00 0.00 0.00 44 1012.2
20260505002111 52 202 0.0 0.0 0.00 0.00 0.00 43 1012.3
20260505001112 52 112 0.0 0.0 0.00 0.00 0.00 44 1012.3
20260505000111 52 292 1.0 0.0 0.00 0.00 0.00 43 1012.6
20260504235111 53 135 0.0 0.0 0.00 0.00 0.00 42 1012.6
20260504233111 54 112 0.0 0.0 0.00 0.00 0.00 40 1012.8
20260504231111 55 202 0.0 0.0 0.00 0.00 0.00 39 1012.9
20260504230111 55 135 0.0 1.0 0.00 0.00 0.00 39 1013.1
20260504225111 55 157 0.0 0.0 0.00 0.00 0.00 38 1013.1
20260504224111 56 157 1.0 0.0 0.00 0.00 0.00 38 1013.1
20260504223110 56 90 1.0 2.0 0.00 0.00 0.00 38 1013.1
20260504220114 57 22 0.0 1.0 0.00 0.00 0.00 36 1013.0
20260504215114 57 157 0.0 0.0 0.00 0.00 0.00 36 1013.0
20260504214113 58 45 0.0 2.0 0.00 0.00 0.00 35 1013.1
20260504213115 58 202 0.0 0.0 0.00 0.00 0.00 34 1013.1
20260504212113 59 202 0.0 0.0 0.00 0.00 0.00 33 1013.2
20260504211113 59 67 1.0 3.0 0.00 0.00 0.00 32 1013.2
20260504210113 60 157 0.0 0.0 0.00 0.00 0.00 33 1013.0
20260504205113 60 90 1.0 0.0 0.00 0.00 0.00 32 1013.0
20260504204113 61 90 0.0 3.0 0.00 0.00 0.00 32 1012.9
20260504203113 61 112 1.0 1.0 0.00 0.00 0.00 31 1012.9
20260504202113 62 135 2.0 2.0 0.00 0.00 0.00 31 1012.9
20260504201114 62 135 2.0 1.0 0.00 0.00 0.00 31 1012.9
20260504200114 63 135 1.0 4.0 0.00 0.00 0.00 32 1012.9
20260504194113 64 225 1.0 0.0 0.00 0.00 0.00 32 1012.8
20260504193113 64 157 1.0 2.0 0.00 0.00 0.00 32 1012.8
20260504192113 65 157 1.0 0.0 0.00 0.00 0.00 31 1012.5
20260504191113 66 45 1.0 2.0 0.00 0.00 0.00 30 1012.5
20260504190113 68 112 0.0 2.0 0.00 0.00 0.00 30 1012.2
20260504185114 68 90 0.0 0.0 0.00 0.00 0.00 29 1012.2
20260504184112 69 202 0.0 0.0 0.00 0.00 0.00 28 1012.2
20260504183112 70 45 0.0 0.0 0.00 0.00 0.00 27 1012.2
20260504182112 71 90 0.0 1.0 0.00 0.00 0.00 26 1012.1
20260504181112 72 270 0.0 0.0 0.00 0.00 0.00 25 1012.1
20260504175112 73 360 0.0 0.0 0.00 0.00 0.00 25 1011.9
20260504173112 74 337 1.0 2.0 0.00 0.00 0.00 25 1011.9
20260504172112 74 225 1.0 1.0 0.00 0.00 0.00 25 1011.8
20260504171111 74 225 2.0 2.0 0.00 0.00 0.00 25 1011.8
20260504170112 75 180 1.0 1.0 0.00 0.00 0.00 25 1011.8
20260504160111 77 202 3.0 1.0 0.00 0.00 0.00 25 1011.6
20260504150111 80 157 4.0 4.0 0.00 0.00 0.00 25 1011.5
20260504141111 80 45 4.0 5.0 0.00 0.00 0.00 25 1011.8
20260504140111 80 67 3.0 4.0 0.00 0.00 0.00 25 1011.9
20260504130111 80 112 3.0 7.0 0.00 0.00 0.00 25 1012.3
20260504120115 78 202 3.0 6.0 0.00 0.00 0.00 30 1013.0
20260504110114 76 315 2.0 2.0 0.00 0.00 0.00 34 1013.8